Zurück zum Katalog

STARLINK-3045

AktivKommunikationVLEO
NORAD 49173·PAYLOAD·🇺🇸 United States

Gestartet Sep 14, 2021 von Vandenberg Space Force Base

Loading…

Nächste Überflüge (nächste 24 Stunden)

TLE

AktuellSource: CelesTrak SupGP

Epoche: Sep 14, 2026, 20:22 UTC

1 49173C 21082AV  26257.84909722  .00685780  00000+0  24185-1 0  2571
2 49173  69.9999 156.1404 0003206 269.2550  50.7205 15.28788088    13

Verfolge STARLINK-3045 in Echtzeit mit AllMySat

Download on the App Store